Regional Weather Roundup
Issued by NWS

Home | Current Version | Previous Version | Graphics & Text | Print | Product List | Glossary On
Versions: 1 2 3 4 5 6 7 8 9 10 11 12 13 14 15 16 17 18 19 20 21 22 23 24 25 26 27 28 29 30 31 32 33 34 35 36 37 38 39 40 41 42 43 44 45 46 47 48 49 50
000
ASUS45 KSLC 280810
RWRUT

UTAH REGIONAL WEATHER ROUNDUP
NATIONAL WEATHER SERVICE SALT LAKE CITY UT
200 AM MDT FRI AUG 28 2015

UTZ001>011-023>025-280900-

NORTHERN UTAH

CITY           SKY/WX    TMP DP  RH WIND       PRES   REMARKS
BRIGHAM CITY   CLEAR     65  51  58 CALM      30.18R
HILL AFB       CLEAR     68  43  39 E15       30.21R
LOGAN          CLEAR     56  51  84 CALM      30.21R
OGDEN          CLEAR     67  44  43 S9        30.18R
PROVO AIRPORT  CLEAR     61  46  59 S9        30.22R
SALT LAKE CITY CLEAR     71  43  36 SE8       30.17R
VERNAL         CLEAR     60  41  49 NW7       30.26S
WENDOVER       PTCLDY    70  41  35 CALM      30.17S
HEBER CITY     CLEAR     52  43  71 CALM      30.30S
WEST JORDAN    CLEAR     64  43  45 S5        30.20F

$$

UTZ012>022-026-027-280900-

SOUTHERN/CENTRAL UTAH

CITY           SKY/WX    TMP DP  RH WIND       PRES   REMARKS
BLANDING       PTCLDY    66  44  45 N8        30.32S
BRYCE CANYON   CLEAR     50  45  83 W9        30.43S
CEDAR CITY     CLEAR     60  45  57 NE6       30.26F
DELTA          CLEAR     67  42  40 CALM      30.21S
HANKSVILLE     CLEAR     64  54  68 NW5       30.19S
MILFORD        CLEAR     61  46  57 SW7       30.22S
MOAB/CYNLANDS  CLEAR     73  46  38 SE9       30.17R
PRICE          PTCLDY    60  45  57 N3        30.29S
ST GEORGE      SUNNY     75  50  41 CALM      30.08S
KANAB          CLEAR     66  55  68 N9        30.27S

$$

REGIONAL REPORTS     COLORADO/ARIZONA

CITY           SKY/WX    TMP DP  RH WIND       PRES   REMARKS
CRAIG, CO      CLEAR     50  47  89 CALM      30.35R
GRAND JUNCTION CLEAR     64  54  69 S9        30.24S
RIFLE          CLEAR     57  53  86 E3        30.32S
MONTROSE       MOCLDY    60  53  77 SE6       30.34S
CORTEZ         CLEAR     56  52  86 NE6       30.26S
PAGE, AZ       CLEAR     76  52  43 SW3       30.14S
GRAND CANYON   PTCLDY    52  44  74 CALM      30.35S
KINGMAN        PTCLDY    77  54  44 S9        30.09F
FLAGSTAFF      MOCLDY    55  54  96 CALM      30.37F

$$

REGIONAL REPORTS    NEVADA/IDAHO/WYOMING

CITY           SKY/WX    TMP DP  RH WIND       PRES   REMARKS
LAS VEGAS, NV  CLEAR     89  51  27 S3        29.93S
ELY            CLEAR     53  43  68 S10       30.32S
ELKO           CLEAR     61  34  36 CALM      30.20S
POCATELLO, ID  CLEAR     67  35  30 SW8       30.17R
BURLEY         CLEAR     60  46  59 S3        30.14R
EVANSTON, WY   CLEAR     54  39  57 SE6       30.38S
ROCK SPRINGS   CLEAR     55  43  63 S10       30.36F
KEMMERER       CLEAR     45  37  76 N10       30.40S

$$



USA.gov is the U.S. government's official web portal to all federal, state and local government web resources and services.